Previsão horária em Almazovo

Hoje, 25 Junho, Sexta-feira

Tempo Temperatura Precipitação Vento Pressão Humidade
00:00 +22°C° 0 mm 4 m/s 744 mmHg 82%
01:00 +22°C° 0 mm 3 m/s 744 mmHg 80%
02:00 +23°C° 0 mm 2 m/s 744 mmHg 73%
03:00 +23°C° 0.4 mm 2 m/s 744 mmHg 78%
04:00 +23°C° 0.4 mm 2 m/s 744 mmHg 82%
05:00 +23°C° 0.4 mm 1 m/s 744 mmHg 87%
06:00 +25°C° 0 mm 2 m/s 744 mmHg 82%
07:00 +26°C° 0 mm 2 m/s 744 mmHg 77%
08:00 +28°C° 0 mm 2 m/s 744 mmHg 73%
09:00 +29°C° 0 mm 2 m/s 744 mmHg 69%
10:00 +30°C° 0 mm 2 m/s 744 mmHg 65%
11:00 +31°C° 0 mm 2 m/s 744 mmHg 61%
12:00 +32°C° 0 mm 2 m/s 743 mmHg 58%
13:00 +32°C° 0 mm 2 m/s 743 mmHg 55%
14:00 +33°C° 0 mm 1 m/s 743 mmHg 52%
15:00 +33°C° 0 mm 1 m/s 743 mmHg 55%
16:00 +32°C° 0 mm 1 m/s 742 mmHg 59%
17:00 +32°C° 0 mm 1 m/s 742 mmHg 62%
18:00 +30°C° 0.1 mm 2 m/s 742 mmHg 66%
19:00 +29°C° 0.1 mm 2 m/s 741 mmHg 70%
20:00 +27°C° 0.1 mm 2 m/s 741 mmHg 74%
21:00 +25°C° 0.6 mm 2 m/s 741 mmHg 80%
22:00 +23°C° 0.6 mm 2 m/s 742 mmHg 86%
23:00 +20°C° 0.6 mm 2 m/s 742 mmHg 92%

Amanhã, 26 Junho, Sábado

Tempo Temperatura Precipitação Vento Pressão Humidade
00:00 +20°C° 0.2 mm 2 m/s 742 mmHg 92%
01:00 +20°C° 0.2 mm 2 m/s 742 mmHg 92%
02:00 +20°C° 0.2 mm 2 m/s 741 mmHg 92%
03:00 +21°C° 0 mm 2 m/s 741 mmHg 90%
04:00 +23°C° 0 mm 1 m/s 741 mmHg 87%
05:00 +23°C° 0 mm 1 m/s 741 mmHg 84%
06:00 +25°C° 0 mm 1 m/s 741 mmHg 80%
07:00 +26°C° 0 mm 1 m/s 741 mmHg 76%
08:00 +27°C° 0 mm 2 m/s 742 mmHg 71%
09:00 +28°C° 0 mm 1 m/s 742 mmHg 67%
10:00 +29°C° 0 mm 1 m/s 741 mmHg 64%
11:00 +30°C° 0 mm 1 m/s 741 mmHg 60%
12:00 +31°C° 0 mm 1 m/s 741 mmHg 58%
13:00 +31°C° 0 mm 1 m/s 741 mmHg 56%
14:00 +32°C° 0 mm 1 m/s 741 mmHg 55%
15:00 +31°C° 0 mm 2 m/s 740 mmHg 59%
16:00 +31°C° 0 mm 2 m/s 740 mmHg 63%
17:00 +30°C° 0 mm 3 m/s 739 mmHg 67%
18:00 +29°C° 0.3 mm 3 m/s 739 mmHg 72%
19:00 +27°C° 0.3 mm 2 m/s 739 mmHg 76%
20:00 +25°C° 0.3 mm 2 m/s 740 mmHg 80%
21:00 +24°C° 1.1 mm 2 m/s 740 mmHg 84%
22:00 +23°C° 1.1 mm 2 m/s 740 mmHg 88%
23:00 +21°C° 1.1 mm 2 m/s 740 mmHg 92%

Depois de amanhã, 27 Junho, Domingo

Tempo Temperatura Precipitação Vento Pressão Humidade
00:00 +21°C° 0.1 mm 2 m/s 740 mmHg 91%
01:00 +21°C° 0.1 mm 2 m/s 740 mmHg 91%
02:00 +21°C° 0.1 mm 2 m/s 739 mmHg 91%
03:00 +21°C° 0.6 mm 2 m/s 739 mmHg 92%
04:00 +21°C° 0.6 mm 2 m/s 740 mmHg 92%
05:00 +21°C° 0.6 mm 2 m/s 740 mmHg 93%
06:00 +24°C° 0 mm 2 m/s 740 mmHg 88%
07:00 +25°C° 0 mm 3 m/s 739 mmHg 84%
08:00 +27°C° 0 mm 3 m/s 739 mmHg 79%
09:00 +28°C° 0.6 mm 4 m/s 739 mmHg 75%
10:00 +29°C° 0.6 mm 4 m/s 739 mmHg 72%
11:00 +30°C° 0.6 mm 4 m/s 739 mmHg 69%
12:00 +28°C° 1.7 mm 4 m/s 739 mmHg 73%
13:00 +26°C° 1.7 mm 3 m/s 738 mmHg 76%
14:00 +24°C° 1.7 mm 3 m/s 738 mmHg 80%
15:00 +24°C° 2.3 mm 3 m/s 738 mmHg 83%
16:00 +24°C° 2.3 mm 3 m/s 738 mmHg 86%
17:00 +24°C° 2.3 mm 3 m/s 738 mmHg 89%
18:00 +22°C° 2.6 mm 3 m/s 738 mmHg 91%
19:00 +22°C° 2.6 mm 3 m/s 737 mmHg 92%
20:00 +21°C° 2.6 mm 3 m/s 737 mmHg 94%
21:00 +21°C° 0.3 mm 3 m/s 737 mmHg 94%
22:00 +20°C° 0.3 mm 2 m/s 737 mmHg 95%
23:00 +20°C° 0.3 mm 2 m/s 736 mmHg 95%

28 Junho, Segunda-feira

Tempo Temperatura Precipitação Vento Pressão Humidade
00:00 +20°C° 0.3 mm 2 m/s 736 mmHg 96%
01:00 +19°C° 0.3 mm 2 m/s 736 mmHg 96%
02:00 +19°C° 0.3 mm 2 m/s 736 mmHg 96%
03:00 +19°C° 0.1 mm 2 m/s 736 mmHg 96%
04:00 +19°C° 0.1 mm 2 m/s 736 mmHg 96%
05:00 +19°C° 0.1 mm 3 m/s 736 mmHg 96%
06:00 +21°C° 0.2 mm 3 m/s 736 mmHg 94%
07:00 +22°C° 0.2 mm 3 m/s 736 mmHg 91%
08:00 +24°C° 0.2 mm 3 m/s 736 mmHg 89%
09:00 +24°C° 0 mm 3 m/s 736 mmHg 86%
10:00 +25°C° 0 mm 3 m/s 736 mmHg 83%
11:00 +26°C° 0 mm 3 m/s 736 mmHg 80%
12:00 +26°C° 0.2 mm 3 m/s 736 mmHg 81%
13:00 +26°C° 0.2 mm 3 m/s 736 mmHg 82%
14:00 +26°C° 0.2 mm 4 m/s 736 mmHg 83%
15:00 +25°C° 0.6 mm 4 m/s 736 mmHg 84%
16:00 +25°C° 0.6 mm 5 m/s 735 mmHg 86%
17:00 +23°C° 0.6 mm 5 m/s 735 mmHg 87%
18:00 +22°C° 2.4 mm 5 m/s 735 mmHg 90%
19:00 +21°C° 2.4 mm 5 m/s 734 mmHg 93%
20:00 +20°C° 2.4 mm 5 m/s 734 mmHg 96%
21:00 +20°C° 3.3 mm 5 m/s 734 mmHg 97%
22:00 +20°C° 3.3 mm 5 m/s 734 mmHg 97%
23:00 +19°C° 3.3 mm 6 m/s 733 mmHg 98%

29 Junho, Terça-feira

Tempo Temperatura Precipitação Vento Pressão Humidade
00:00 +19°C° 3.3 mm 6 m/s 733 mmHg 98%
01:00 +19°C° 3.3 mm 6 m/s 732 mmHg 98%
02:00 +19°C° 3.3 mm 6 m/s 732 mmHg 98%
03:00 +17°C° 5.4 mm 6 m/s 732 mmHg 98%
04:00 +17°C° 5.4 mm 6 m/s 732 mmHg 98%
05:00 +17°C° 5.4 mm 6 m/s 732 mmHg 98%
06:00 +17°C° 1.7 mm 6 m/s 732 mmHg 97%
07:00 +17°C° 1.7 mm 6 m/s 732 mmHg 97%
08:00 +17°C° 1.7 mm 6 m/s 732 mmHg 97%
09:00 +17°C° 0.8 mm 6 m/s 732 mmHg 97%
10:00 +17°C° 0.8 mm 7 m/s 732 mmHg 96%
11:00 +17°C° 0.8 mm 7 m/s 732 mmHg 96%
12:00 +17°C° 0.4 mm 7 m/s 732 mmHg 96%
13:00 +17°C° 0.4 mm 7 m/s 732 mmHg 96%
14:00 +16°C° 0.4 mm 7 m/s 732 mmHg 96%
15:00 +16°C° 0.2 mm 7 m/s 732 mmHg 96%
16:00 +16°C° 0.2 mm 6 m/s 733 mmHg 96%
17:00 +16°C° 0.2 mm 6 m/s 733 mmHg 97%
18:00 +16°C° 0.3 mm 6 m/s 733 mmHg 97%
19:00 +16°C° 0.3 mm 6 m/s 733 mmHg 97%
20:00 +15°C° 0.3 mm 6 m/s 733 mmHg 97%
21:00 +15°C° 0.6 mm 6 m/s 732 mmHg 97%
22:00 +15°C° 0.6 mm 6 m/s 732 mmHg 97%
23:00 +15°C° 0.6 mm 6 m/s 732 mmHg 97%

30 Junho, Quarta-feira

Tempo Temperatura Precipitação Vento Pressão Humidade
00:00 +15°C° 0.5 mm 6 m/s 731 mmHg 97%
01:00 +15°C° 0.5 mm 6 m/s 731 mmHg 97%
02:00 +15°C° 0.5 mm 6 m/s 731 mmHg 97%
03:00 +15°C° 0.8 mm 6 m/s 731 mmHg 97%
04:00 +15°C° 0.8 mm 6 m/s 731 mmHg 98%
05:00 +15°C° 0.8 mm 6 m/s 731 mmHg 98%
06:00 +15°C° 1 mm 6 m/s 731 mmHg 98%
07:00 +15°C° 1 mm 6 m/s 731 mmHg 98%
08:00 +15°C° 1 mm 6 m/s 731 mmHg 98%
09:00 +15°C° 0.2 mm 6 m/s 732 mmHg 97%
10:00 +15°C° 0.2 mm 5 m/s 732 mmHg 97%
11:00 +16°C° 0.2 mm 5 m/s 732 mmHg 97%
12:00 +16°C° 0.1 mm 5 m/s 733 mmHg 97%
13:00 +16°C° 0.1 mm 5 m/s 733 mmHg 97%
14:00 +15°C° 0.1 mm 6 m/s 733 mmHg 97%
15:00 +16°C° 0.1 mm 5 m/s 734 mmHg 97%
16:00 +16°C° 0.1 mm 5 m/s 734 mmHg 97%
17:00 +16°C° 0.1 mm 5 m/s 734 mmHg 97%
18:00 +16°C° 0 mm 5 m/s 735 mmHg 97%
19:00 +17°C° 0 mm 4 m/s 735 mmHg 98%
20:00 +17°C° 0 mm 4 m/s 735 mmHg 98%
21:00 +17°C° 0 mm 4 m/s 735 mmHg 98%
22:00 +17°C° 0 mm 4 m/s 735 mmHg 97%
23:00 +17°C° 0 mm 4 m/s 735 mmHg 97%
Mostrar mais